| time (UTC) | temp F | wind direction | speed MPH | gust MPH | rain 1hr in | rain 24hr in | rain mn in | humidity % | barometer mb |
| 20260904190041 | 74 | 0 | 0.0 | 0.0 | 0.00 | 0.00 | 0.00 | 62 | 1011.1 |
| 20260904184538 | 75 | 0 | 0.0 | 0.0 | 0.00 | 0.00 | 0.00 | 61 | 1011.3 |
| 20260904183050 | 75 | 0 | 0.0 | 0.0 | 0.00 | 0.00 | 0.00 | 67 | 1011.3 |
| 20260904181542 | 76 | 0 | 0.0 | 0.0 | 0.00 | 0.00 | 0.00 | 61 | 1011.6 |
| 20260904180039 | 75 | 0 | 0.0 | 0.0 | 0.00 | 0.00 | 0.00 | 66 | 1011.6 |
| 20260904174542 | 77 | 0 | 0.0 | 0.0 | 0.00 | 0.00 | 0.00 | 60 | 1011.3 |
| 20260904173050 | 77 | 0 | 1.0 | 6.0 | 0.00 | 0.00 | 0.00 | 67 | 1011.4 |
| 20260904171538 | 74 | 275 | 1.0 | 4.0 | 0.00 | 0.00 | 0.00 | 67 | 1011.7 |
| 20260904170042 | 75 | 174 | 0.0 | 3.0 | 0.00 | 0.00 | 0.00 | 66 | 1011.6 |
| 20260904164537 | 75 | 0 | 0.0 | 3.0 | 0.00 | 0.00 | 0.00 | 64 | 1011.8 |
| 20260904163048 | 76 | 0 | 1.0 | 3.0 | 0.00 | 0.00 | 0.00 | 63 | 1012.0 |
| 20260904161536 | 76 | 157 | 0.0 | 4.0 | 0.00 | 0.00 | 0.00 | 67 | 1012.1 |
| 20260904160042 | 76 | 208 | 0.0 | 3.0 | 0.00 | 0.00 | 0.00 | 68 | 1012.2 |
| 20260904154536 | 75 | 269 | 0.0 | 5.0 | 0.00 | 0.00 | 0.00 | 69 | 1012.1 |
| 20260904153040 | 75 | 0 | 0.0 | 2.0 | 0.00 | 0.00 | 0.00 | 73 | 1012.3 |
| 20260904151543 | 74 | 0 | 0.0 | 2.0 | 0.00 | 0.00 | 0.00 | 72 | 1012.3 |
| 20260904150041 | 74 | 0 | 0.0 | 0.0 | 0.00 | 0.00 | 0.00 | 77 | 1012.4 |
| 20260904144556 | 74 | 0 | 0.0 | 3.0 | 0.00 | 0.00 | 0.00 | 76 | 1012.2 |
| 20260904143054 | 74 | 0 | 0.0 | 1.0 | 0.00 | 0.00 | 0.00 | 81 | 1012.3 |
| 20260904141540 | 73 | 0 | 0.0 | 1.0 | 0.00 | 0.00 | 0.00 | 80 | 1012.4 |
| 20260904140041 | 72 | 0 | 0.0 | 1.0 | 0.00 | 0.00 | 0.00 | 83 | 1012.5 |
| 20260904134541 | 71 | 267 | 0.0 | 1.0 | 0.00 | 0.00 | 0.00 | 81 | 1012.3 |
| 20260904133038 | 71 | 0 | 0.0 | 1.0 | 0.00 | 0.00 | 0.00 | 86 | 1012.4 |
| 20260904131540 | 70 | 0 | 0.0 | 1.0 | 0.00 | 0.00 | 0.00 | 84 | 1012.4 |
| 20260904130041 | 70 | 0 | 0.0 | 0.0 | 0.00 | 0.00 | 0.00 | 86 | 1012.5 |
| 20260904124539 | 70 | 0 | 0.0 | 1.0 | 0.00 | 0.00 | 0.00 | 89 | 1012.5 |
| 20260904123038 | 66 | 0 | 0.0 | 0.0 | 0.00 | 0.00 | 0.00 | 95 | 1012.4 |
| 20260904121541 | 62 | 0 | 0.0 | 0.0 | 0.00 | 0.00 | 0.00 | 99 | 1012.4 |
| 20260904120043 | 59 | 0 | 0.0 | 0.0 | 0.00 | 0.00 | 0.00 | 100 | 1012.3 |
| 20260904114540 | 57 | 0 | 0.0 | 0.0 | 0.00 | 0.00 | 0.00 | 100 | 1012.2 |
| 20260904113038 | 56 | 0 | 0.0 | 0.0 | 0.00 | 0.00 | 0.00 | 100 | 1012.1 |
| 20260904111542 | 55 | 0 | 0.0 | 0.0 | 0.00 | 0.00 | 0.00 | 100 | 1012.0 |
| 20260904110039 | 55 | 0 | 0.0 | 0.0 | 0.00 | 0.00 | 0.00 | 100 | 1011.9 |
| 20260904104541 | 55 | 0 | 0.0 | 0.0 | 0.00 | 0.00 | 0.00 | 100 | 1011.9 |
| 20260904103035 | 55 | 0 | 0.0 | 0.0 | 0.00 | 0.00 | 0.00 | 99 | 1011.9 |
| 20260904101541 | 56 | 0 | 0.0 | 0.0 | 0.00 | 0.00 | 0.00 | 99 | 1011.9 |
| 20260904100042 | 56 | 0 | 0.0 | 0.0 | 0.00 | 0.00 | 0.00 | 100 | 1011.9 |
| 20260904094539 | 56 | 0 | 0.0 | 0.0 | 0.00 | 0.00 | 0.00 | 100 | 1011.7 |
| 20260904093041 | 56 | 0 | 0.0 | 0.0 | 0.00 | 0.00 | 0.00 | 100 | 1011.6 |
| 20260904091550 | 56 | 0 | 0.0 | 0.0 | 0.00 | 0.00 | 0.00 | 99 | 1011.8 |
| 20260904090038 | 56 | 0 | 0.0 | 0.0 | 0.00 | 0.00 | 0.00 | 99 | 1011.7 |
| 20260904084538 | 56 | 0 | 0.0 | 0.0 | 0.00 | 0.00 | 0.00 | 99 | 1011.8 |
| 20260904083041 | 56 | 0 | 0.0 | 0.0 | 0.00 | 0.00 | 0.00 | 99 | 1011.7 |
| 20260904081539 | 56 | 0 | 0.0 | 0.0 | 0.00 | 0.00 | 0.00 | 99 | 1011.7 |
| 20260904080039 | 57 | 0 | 0.0 | 0.0 | 0.00 | 0.00 | 0.00 | 99 | 1011.5 |
| 20260904074557 | 57 | 0 | 0.0 | 0.0 | 0.00 | 0.00 | 0.00 | 99 | 1011.6 |
| 20260904073040 | 57 | 0 | 0.0 | 0.0 | 0.00 | 0.00 | 0.00 | 99 | 1011.8 |
| 20260904071600 | 57 | 0 | 0.0 | 0.0 | 0.00 | 0.00 | 0.00 | 99 | 1011.9 |
| 20260904070042 | 58 | 0 | 0.0 | 0.0 | 0.00 | 0.00 | 0.00 | 99 | 1012.0 |
| 20260904064601 | 58 | 0 | 0.0 | 0.0 | 0.00 | 0.07 | 0.00 | 99 | 1012.1 |
| 20260904063049 | 58 | 0 | 0.0 | 0.0 | 0.00 | 0.07 | 0.00 | 99 | 1012.2 |
| 20260904061540 | 59 | 0 | 0.0 | 0.0 | 0.00 | 0.07 | 0.00 | 99 | 1012.3 |
| 20260904060041 | 59 | 0 | 0.0 | 0.0 | 0.00 | 0.07 | 0.00 | 99 | 1012.4 |
| 20260904054540 | 60 | 0 | 0.0 | 0.0 | 0.00 | 0.07 | 0.00 | 99 | 1012.6 |
| 20260904053049 | 60 | 0 | 0.0 | 0.0 | 0.00 | 0.07 | 0.00 | 99 | 1012.9 |
| 20260904051536 | 60 | 0 | 0.0 | 0.0 | 0.00 | 0.07 | 0.00 | 99 | 1012.9 |
| 20260904050047 | 60 | 0 | 0.0 | 0.0 | 0.00 | 0.07 | 0.00 | 99 | 1013.0 |
| 20260904044542 | 61 | 0 | 0.0 | 0.0 | 0.00 | 0.07 | 0.00 | 99 | 1013.1 |
| 20260904043045 | 61 | 0 | 0.0 | 0.0 | 0.00 | 0.07 | 0.00 | 99 | 1013.1 |
| 20260904041543 | 61 | 0 | 0.0 | 0.0 | 0.00 | 0.07 | 0.00 | 99 | 1013.1 |
| 20260904040041 | 61 | 0 | 0.0 | 0.0 | 0.00 | 0.07 | 0.00 | 98 | 1013.3 |
| 20260904034538 | 62 | 0 | 0.0 | 0.0 | 0.00 | 0.07 | 0.07 | 98 | 1013.4 |
| 20260904033053 | 62 | 0 | 0.0 | 0.0 | 0.00 | 0.07 | 0.07 | 98 | 1013.5 |
| 20260904031553 | 62 | 0 | 0.0 | 0.0 | 0.00 | 0.07 | 0.07 | 98 | 1013.7 |
| 20260904030038 | 63 | 0 | 0.0 | 0.0 | 0.00 | 0.07 | 0.07 | 98 | 1013.7 |
| 20260904024538 | 63 | 0 | 0.0 | 0.0 | 0.00 | 0.07 | 0.07 | 98 | 1013.9 |
| 20260904023041 | 63 | 0 | 0.0 | 0.0 | 0.00 | 0.07 | 0.07 | 98 | 1013.8 |
| 20260904021548 | 64 | 0 | 0.0 | 0.0 | 0.00 | 0.07 | 0.07 | 98 | 1013.7 |
| 20260904020042 | 64 | 0 | 0.0 | 0.0 | 0.00 | 0.07 | 0.07 | 98 | 1013.8 |
| 20260904014544 | 65 | 0 | 0.0 | 0.0 | 0.00 | 0.07 | 0.07 | 98 | 1013.9 |
| 20260904013041 | 65 | 0 | 0.0 | 0.0 | 0.00 | 0.07 | 0.07 | 98 | 1014.0 |
| 20260904011540 | 66 | 0 | 0.0 | 0.0 | 0.00 | 0.07 | 0.07 | 97 | 1013.8 |
| 20260904010043 | 66 | 0 | 0.0 | 0.0 | 0.00 | 0.07 | 0.07 | 97 | 1013.8 |
| 20260904004540 | 67 | 0 | 0.0 | 0.0 | 0.00 | 0.07 | 0.07 | 97 | 1013.8 |
| 20260904003041 | 67 | 0 | 0.0 | 0.0 | 0.00 | 0.07 | 0.07 | 96 | 1013.4 |
| 20260904001543 | 68 | 0 | 0.0 | 0.0 | 0.00 | 0.07 | 0.07 | 96 | 1013.3 |
| 20260904000040 | 68 | 0 | 0.0 | 0.0 | 0.00 | 0.07 | 0.07 | 96 | 1013.1 |
| 20260903234536 | 68 | 0 | 0.0 | 0.0 | 0.00 | 0.07 | 0.07 | 96 | 1012.7 |
| 20260903233042 | 68 | 0 | 0.0 | 0.0 | 0.00 | 0.07 | 0.07 | 95 | 1012.8 |
| 20260903231535 | 69 | 0 | 0.0 | 0.0 | 0.00 | 0.07 | 0.07 | 94 | 1012.8 |
| 20260903230040 | 69 | 0 | 0.0 | 0.0 | 0.00 | 0.07 | 0.07 | 92 | 1012.9 |
| 20260903224540 | 70 | 0 | 0.0 | 0.0 | 0.00 | 0.07 | 0.07 | 92 | 1013.0 |
| 20260903223036 | 71 | 0 | 0.0 | 0.0 | 0.00 | 0.07 | 0.07 | 91 | 1012.9 |
| 20260903221546 | 71 | 0 | 0.0 | 0.0 | 0.00 | 0.07 | 0.07 | 90 | 1013.0 |
| 20260903220036 | 72 | 0 | 0.0 | 0.0 | 0.00 | 0.07 | 0.07 | 90 | 1013.3 |
| 20260903214537 | 72 | 0 | 0.0 | 0.0 | 0.00 | 0.07 | 0.07 | 88 | 1013.4 |
| 20260903213036 | 72 | 0 | 0.0 | 0.0 | 0.00 | 0.07 | 0.07 | 89 | 1013.3 |
| 20260903211547 | 72 | 0 | 0.0 | 0.0 | 0.00 | 0.07 | 0.07 | 88 | 1013.2 |
| 20260903210038 | 72 | 0 | 0.0 | 0.0 | 0.00 | 0.07 | 0.07 | 87 | 1013.1 |
| 20260903204556 | 72 | 0 | 0.0 | 0.0 | 0.00 | 0.07 | 0.07 | 88 | 1013.0 |
| 20260903203049 | 72 | 0 | 0.0 | 0.0 | 0.00 | 0.07 | 0.07 | 88 | 1013.2 |
| 20260903201541 | 72 | 0 | 0.0 | 0.0 | 0.00 | 0.07 | 0.07 | 88 | 1013.3 |
| 20260903200047 | 73 | 0 | 0.0 | 0.0 | 0.00 | 0.07 | 0.07 | 88 | 1013.4 |
| 20260903194543 | 73 | 0 | 0.0 | 0.0 | 0.00 | 0.07 | 0.07 | 88 | 1013.5 |
| 20260903193042 | 72 | 0 | 0.0 | 0.0 | 0.00 | 0.07 | 0.07 | 90 | 1013.6 |
| 20260903191541 | 72 | 0 | 0.0 | 0.0 | 0.00 | 0.07 | 0.07 | 89 | 1013.7 |